Flag for U.S.A. Weather past 2 weeks in Frankfort, Kentucky, U.S.A.

Now
28 °F

Mostly cloudy.


Feels Like: 24 °F
Forecast: 25 / 42 °F
Wind: 3 mph from Northeast

Location: Capital City Airport

Current Time: Dec 20, 2014 at 5:32:59 AM

Latest Report: Dec 20, 2014 at 4:53 AM


Visibility: 10 mi

Pressure: 30.26 "Hg

Humidity: 78%

Dew point: 22 °F

Location of FrankfortLocation

Historic Weather in Frankfort — Graph

°F

Frankfort temperature yesterday

Maximum temperature yesterday: 33 °F (at 1:53 PM)
Minimum temperature yesterday: 23 °F (at 7:53 AM)
Average temperature yesterday: 29 °F

Past Weeks' High & Low Weather Summary

 TemperatureHumidityPressure
High58 °F (Dec 6, 2:53 AM)100% (Dec 5, 4:53 AM)30.56 "Hg (Dec 5, 4:53 AM)
Low22 °F (Dec 12, 6:53 AM)47% (Dec 12, 3:53 PM)29.71 "Hg (Dec 16, 4:53 AM)
Average39 °F76%30.21 "Hg
* Reported Dec 5 3:53 AM — Dec 20 3:53 AM, Frankfort, Weather by CustomWeather, © 2014

Note: Actual official high and low records may vary slightly from our data, if they occured in-between our weather recording intervals... More about our weather records

Advertising

Frankfort weather history for previous 24 hours

 ConditionsComfort  
Time TempWeatherWind HumidityBarometerVisibility
3:53 AM
Dec 20
28 °FOvercast.3 mph78%30.26 "Hg10 mi
2:53 AM28 °FOvercast.6 mph78%30.26 "Hg10 mi
1:53 AM27 °FOvercast.3 mph81%30.28 "Hg9 mi
12:53 AM26 °FPassing clouds.No wind81%30.27 "Hg9 mi
11:53 PM
Dec 19
25 °FClear.No wind78%30.27 "Hg9 mi
10:53 PM24 °FClear.5 mph81%30.27 "Hg9 mi
9:53 PM26 °FClear.5 mph77%30.27 "Hg10 mi
8:53 PM27 °FClear.5 mph75%30.29 "Hg10 mi
7:53 PM28 °FClear.5 mph75%30.30 "Hg10 mi
6:53 PM29 °FPassing clouds.5 mph72%30.31 "Hg10 mi
5:53 PM31 °FOvercast.3 mph67%30.29 "Hg10 mi
4:53 PM32 °FSunny.No wind64%30.29 "Hg10 mi
3:53 PM33 °FSunny.3 mph63%30.27 "Hg10 mi
2:53 PM33 °FSunny.3 mph61%30.24 "Hg10 mi
1:53 PM33 °FScattered clouds.No wind63%30.27 "Hg10 mi
12:53 PM30 °FPartly sunny.5 mph69%30.27 "Hg9 mi
11:53 AM30 °FOvercast.5 mph69%30.30 "Hg8 mi
10:53 AM29 °FPartly sunny.7 mph75%30.31 "Hg8 mi
10:03 AM28 °FPartly sunny.3 mph78%30.29 "Hg6 mi
9:53 AM28 °FPartly sunny.6 mph78%30.30 "Hg6 mi
8:53 AM26 °FIce fog.No wind84%30.30 "Hg5 mi
7:53 AM23 °FIce fog.No wind88%30.30 "Hg5 mi
6:53 AM25 °FClear.No wind88%30.28 "Hg7 mi
5:53 AM27 °FPassing clouds.No wind81%30.27 "Hg9 mi
Weather by CustomWeather, © 2014

See weather overviewHow to use our weather pages